Regional Weather Roundup
Issued by NWS

Home | Current Version | Previous Version | Graphics & Text | Print | Product List | Glossary On
Versions: 1 2 3 4 5 6 7 8 9 10 11 12 13 14 15 16 17 18 19 20 21 22 23 24 25 26 27 28 29 30 31 32 33 34 35 36 37 38 39 40 41 42 43 44 45 46 47 48 49 50
000
ASUS43 KBIS 010410
RWRND

NORTH DAKOTA REGIONAL WEATHER ROUNDUP
NATIONAL WEATHER SERVICE BISMARCK ND
1100 PM CDT THU JUL 31 2014

NOTE: "FAIR" INDICATES FEW OR NO CLOUDS BELOW 12,000 FEET WITH NO
SIGNIFICANT WEATHER AND/OR OBSTRUCTIONS TO VISIBILITY.


NDZ001>003-009>011-017-010500-
NORTHWEST NORTH DAKOTA

CITY           SKY/WX    TMP DP  RH WIND       PRES   REMARKS
WILLISTON      CLEAR     72  59  63 E6        30.03R
MINOT          CLEAR     63  56  78 CALM      30.04R
MINOT AFB      CLEAR     63  62  97 CALM      30.04R
$$

NDZ018>021-031>035-040>046-010500-
SOUTHWEST NORTH DAKOTA

CITY           SKY/WX    TMP DP  RH WIND       PRES   REMARKS
BISMARCK       PTCLDY    69  56  62 CALM      30.04R
DICKINSON      CLEAR     66  57  72 SE9       30.04R
GARRISON         N/A     66  57  72 CALM      30.05R
HETTINGER ARPT CLEAR     67  54  63 E7        30.07R
$$

NDZ004>008-012>016-024-026-027-054-010500-
NORTHEAST NORTH DAKOTA

CITY           SKY/WX    TMP DP  RH WIND       PRES   REMARKS
GRAND FORKS    CLEAR     65  63  93 NW5       29.99R
GRND FRKS AFB  CLEAR     65  65  99 NW2       30.01R
DEVILS LAKE    CLEAR     70  59  68 CALM      30.03R
$$

NDZ022-023-025-028>030-036>039-047>053-010500-
SOUTHEAST NORTH DAKOTA

CITY           SKY/WX    TMP DP  RH WIND       PRES   REMARKS
FARGO          CLEAR     69  62  78 CALM      30.00R
JAMESTOWN      CLEAR     64  61  90 NE3       30.04R
$$



USA.gov is the U.S. government's official web portal to all federal, state and local government web resources and services.